Mosby, MO

11:18 PM CST on December 14, 2019 (GMT -0600)
Clay County Regional

Weather History for KGPH - October, 2019

Change the Weather History Date:

Thursday, October 17, 2019

  Actual Average (KMKC) Record (KMKC)
Temperature  
Mean Temperature 52 °F -  
Max Temperature 68 °F 65 °F 89 °F (2016)
Min Temperature 35 °F 46 °F 37 °F (2001)
Degree Days  
Heating Degree Days 14    
Growing Degree Days 2 (Base 50)    
Moisture  
Dew Point 40 °F    
Average Humidity 75    
Maximum Humidity 100    
Minimum Humidity 37    
Precipitation  
Precipitation 0.00 in - - ()
Sea Level Pressure  
Sea Level Pressure 29.99 in    
Wind  
Wind Speed 2 mph ()    
Max Wind Speed 9 mph    
Max Gust Speed 16 mph    
Visibility 10.0 miles    
Events      
Averages and records for this station are not official NWS values.
T = Trace of Precipitation, MM = Missing Value Source: Averaged Metar Reports

Daily Weather History Graph

Daily Weather History Graph

Search for Another Location

Airport or City:

Astronomy

Oct. 17, 2019 Rise Set
Actual Time 7:28 AM CDT 6:35 PM CDT
Civil Twilight 7:01 AM CDT 7:02 PM CDT
Nautical Twilight 6:30 AM CDT 7:33 PM CDT
Astronomical Twilight 5:59 AM CDT 8:04 PM CDT
Moon 9:09 PM CDT (10/17) 11:00 AM CDT (10/17)
Length of Visible Light 12h 00m
Length of Day
11h 06m
Waning Gibbous, 86% of the Moon is Illuminated
Oct 17
Waning Gibbous
Oct 21
Last Quarter
Oct 27
New
Nov 4
First Quarter
Nov 12
Full

Hourly Weather History & Observations

Time (CDT) Temp. Windchill Dew Point Humidity Pressure Visibility Wind Dir Wind Speed Gust Speed Precip Events Conditions
12:35 AM 37.4 °F - 37.4 °F 100% 30.10 in 10.0 mi Calm Calm - N/A   Clear
12:55 AM 37.4 °F - 35.6 °F 93% 30.08 in 10.0 mi Calm Calm - N/A   Clear
1:15 AM 37.4 °F - 37.4 °F 100% 30.08 in 10.0 mi Calm Calm - N/A   Clear
1:35 AM 37.4 °F - 35.6 °F 93% 30.08 in 10.0 mi Calm Calm - N/A   Clear
1:55 AM 37.4 °F - 37.4 °F 100% 30.09 in 10.0 mi Calm Calm - N/A   Clear
2:55 AM 37.4 °F - 35.6 °F 93% 30.08 in 10.0 mi Calm Calm - N/A   Clear
3:15 AM 35.6 °F - 35.6 °F 100% 30.07 in 10.0 mi Calm Calm - N/A   Clear
3:35 AM 37.4 °F - 35.6 °F 93% 30.07 in 10.0 mi Calm Calm - N/A   Clear
3:55 AM 37.4 °F - 35.6 °F 93% 30.06 in 10.0 mi Calm Calm - N/A   Clear
4:35 AM 35.6 °F - 35.6 °F 100% 30.07 in 10.0 mi Calm Calm - N/A   Clear
4:55 AM 37.4 °F - 35.6 °F 93% 30.06 in 10.0 mi Calm Calm - N/A   Clear
5:15 AM 37.4 °F - 35.6 °F 93% 30.06 in 10.0 mi Calm Calm - N/A   Clear
5:55 AM 35.6 °F - 35.6 °F 100% 30.06 in 10.0 mi Calm Calm - N/A   Clear
6:15 AM 37.4 °F - 35.6 °F 93% 30.06 in 10.0 mi Calm Calm - N/A   Clear
6:35 AM 37.4 °F - 35.6 °F 93% 30.06 in 10.0 mi Calm Calm - N/A   Clear
6:55 AM 37.4 °F - 35.6 °F 93% 30.06 in 10.0 mi Calm Calm - N/A   Clear
7:15 AM 37.4 °F - 37.4 °F 100% 30.06 in 10.0 mi Calm Calm - N/A   Clear
7:35 AM 37.4 °F 34.9 °F 37.4 °F 100% 30.06 in 10.0 mi SE 3.5 mph - N/A   Clear
7:55 AM 37.4 °F 34.9 °F 37.4 °F 100% 30.06 in 10.0 mi ESE 3.5 mph - N/A   Clear
8:15 AM 37.4 °F 34.9 °F 37.4 °F 100% 30.06 in 10.0 mi SE 3.5 mph - N/A   Clear
8:35 AM 39.2 °F 35.9 °F 37.4 °F 93% 30.06 in 10.0 mi SE 4.6 mph - N/A   Clear
8:55 AM 39.2 °F 37.0 °F 39.2 °F 100% 30.06 in 10.0 mi ESE 3.5 mph - N/A   Clear
9:15 AM 41.0 °F - 41.0 °F 100% 30.06 in 10.0 mi Calm Calm - N/A   Clear
9:35 AM 42.8 °F - 41.0 °F 93% 30.06 in 10.0 mi Calm Calm - N/A   Clear
9:55 AM 44.6 °F - 42.8 °F 93% 30.05 in 10.0 mi Calm Calm - N/A   Clear
10:55 AM 51.8 °F - 42.8 °F 71% 30.05 in 10.0 mi SSE 4.6 mph - N/A   Clear
11:15 AM 53.6 °F - 42.8 °F 67% 30.05 in 10.0 mi SSE 6.9 mph - N/A   Clear
11:35 AM 55.4 °F - 42.8 °F 63% 30.04 in 10.0 mi South 6.9 mph - N/A   Clear
11:55 AM 57.2 °F - 41.0 °F 55% 30.03 in 10.0 mi SSE 6.9 mph - N/A   Clear
12:35 PM 59.0 °F - 41.0 °F 51% 30.02 in 10.0 mi SSE 6.9 mph - N/A   Clear
12:55 PM 60.8 °F - 41.0 °F 48% 30.01 in 10.0 mi SSE 8.1 mph - N/A   Clear
3:15 PM 64.4 °F - 41.0 °F 42% 29.94 in 10.0 mi SE 8.1 mph - N/A   Clear
3:35 PM 64.4 °F - 41.0 °F 42% 29.92 in 10.0 mi SSE 9.2 mph - N/A   Clear
3:55 PM 66.2 °F - 39.2 °F 37% 29.92 in 10.0 mi SSE 6.9 mph - N/A   Clear
4:35 PM 66.2 °F - 41.0 °F 40% 29.91 in 10.0 mi SSE 5.8 mph 16.1 mph N/A   Clear
5:15 PM 68.0 °F - 41.0 °F 37% 29.90 in 10.0 mi SSE 8.1 mph - N/A   Clear
5:35 PM 66.2 °F - 41.0 °F 40% 29.89 in 10.0 mi Calm Calm - N/A   Clear
5:55 PM 66.2 °F - 41.0 °F 40% 29.89 in 10.0 mi SSE 6.9 mph - N/A   Clear
6:35 PM 64.4 °F - 42.8 °F 45% 29.89 in 10.0 mi SSE 5.8 mph - N/A   Clear
6:55 PM 62.6 °F - 42.8 °F 48% 29.89 in 10.0 mi SSE 5.8 mph - N/A   Clear
7:35 PM 59.0 °F - 42.8 °F 55% 29.88 in 10.0 mi SE 4.6 mph - N/A   Clear
7:55 PM 59.0 °F - 42.8 °F 55% 29.88 in 10.0 mi SE 3.5 mph - N/A   Clear
8:15 PM 57.2 °F - 42.8 °F 59% 29.88 in 10.0 mi SE 4.6 mph - N/A   Clear
8:35 PM 57.2 °F - 44.6 °F 63% 29.88 in 10.0 mi SE 5.8 mph - N/A   Clear
8:55 PM 55.4 °F - 44.6 °F 67% 29.88 in 10.0 mi SE 4.6 mph - N/A   Clear
9:15 PM 55.4 °F - 42.8 °F 63% 29.88 in 10.0 mi Calm Calm - N/A   Clear
9:55 PM 55.4 °F - 42.8 °F 63% 29.88 in 10.0 mi SE 3.5 mph - N/A   Clear
10:15 PM 55.4 °F - 42.8 °F 63% 29.88 in 10.0 mi SE 4.6 mph - N/A   Clear
10:35 PM 55.4 °F - 42.8 °F 63% 29.89 in 10.0 mi SE 4.6 mph - N/A   Clear
10:55 PM 53.6 °F - 42.8 °F 67% 29.89 in 10.0 mi SE 4.6 mph - N/A   Clear
11:15 PM 53.6 °F - 42.8 °F 67% 29.88 in 10.0 mi SE 5.8 mph - N/A   Clear
11:35 PM 53.6 °F - 42.8 °F 67% 29.89 in 10.0 mi SE 4.6 mph - N/A   Clear
11:55 PM 53.6 °F - 42.8 °F 67% 29.89 in 10.0 mi SE 3.5 mph - N/A   Clear